Weather History for KCKV - August, 2014

Change the Weather History Date:

Friday, August 29, 2014

  Actual Average Record
Temperature  
Mean Temperature 80 °F -  
Max Temperature 90 °F - 100 °F (1948)
Min Temperature 69 °F - 44 °F (1986)
Degree Days  
Heating Degree Days 0    
Month to date heating degree days  
Since 1 July heating degree days  
Cooling Degree Days 14    
Month to date cooling degree days  
Growing Degree Days 30 (Base 50)    
Moisture  
Dew Point 68 °F    
Average Humidity 77    
Maximum Humidity 97    
Minimum Humidity 39    
Precipitation  
Precipitation 0.00 in - 3.87 in (1963)
Month to date precipitation  
Sea Level Pressure  
Sea Level Pressure 29.99 in    
Wind  
Wind Speed 4 mph (SE)    
Max Wind Speed 12 mph    
Max Gust Speed -    
Visibility 6 miles    
Events      
T = Trace of Precipitation, MM = Missing Value Source: NWS Daily Summary

Daily Weather History Graph

Daily Weather History Graph

Search for Another Location

Airport or City:

Trip Planner

Search our weather history database for the weather conditions in past years. The results will help you decide how hot, cold, wet, or windy it might be!

Date:

Astronomy

Aug. 29, 2014 Rise Set
Actual Time 6:18 AM CDT 7:22 PM CDT
Civil Twilight 5:51 AM CDT 7:48 PM CDT
Nautical Twilight 5:20 AM CDT 8:20 PM CDT
Astronomical Twilight 4:47 AM CDT 8:52 PM CDT
Moon 10:00 AM CDT (8/29) 9:27 PM CDT (8/29)
Length of Visible Light 13h 56m
Length of Day
13h 03m
Waxing Crescent, 15% of the Moon is Illuminated
Aug 29
Waxing Crescent
Sep 2
First Quarter
Sep 8
Full
Sep 15
Last Quarter
Sep 24
New

Hourly Weather History & Observations

Time (CDT) Temp. Heat Index Dew Point Humidity Pressure Visibility Wind Dir Wind Speed Gust Speed Precip Events Conditions
12:13 AM 73.9 °F - 70.0 °F 87% 30.01 in 7.0 mi ESE 5.8 mph - N/A   Partly Cloudy
12:52 AM 73.9 °F - 70.0 °F 87% 29.98 in 8.0 mi NE 3.5 mph - N/A   Clear
1:52 AM 73.0 °F - 70.0 °F 90% 29.97 in 7.0 mi ESE 3.5 mph - N/A   Clear
2:52 AM 72.0 °F - 69.1 °F 91% 29.97 in 5.0 mi East 3.5 mph - N/A   Clear
3:52 AM 71.1 °F - 70.0 °F 96% 29.97 in 3.0 mi Calm Calm - N/A   Clear
4:30 AM 71.1 °F - 69.1 °F 93% 29.99 in 2.5 mi SE 3.5 mph - N/A   Clear
4:50 AM 71.6 °F - 69.8 °F 94% 29.99 in 4.0 mi SSE 3.5 mph - N/A   Clear
4:52 AM 71.1 °F - 69.1 °F 93% 29.98 in 4.0 mi SSE 3.5 mph - N/A   Clear
5:52 AM 71.1 °F - 69.1 °F 93% 29.98 in 3.0 mi SE 3.5 mph - N/A   Clear
6:23 AM 71.1 °F - 69.1 °F 93% 30.00 in 2.0 mi SE 3.5 mph - N/A   Clear
6:31 AM 69.1 °F - 68.0 °F 96% 30.00 in 1.8 mi Calm Calm - N/A   Clear
6:45 AM 70.0 °F - 68.0 °F 93% 30.01 in 0.8 mi East 3.5 mph - N/A   Clear
6:52 AM 70.0 °F - 69.1 °F 97% 29.99 in 1.2 mi ESE 3.5 mph - N/A   Clear
7:08 AM 72.0 °F - 70.0 °F 93% 30.01 in 2.5 mi ESE 3.5 mph - N/A   Clear
7:21 AM 73.0 °F - 71.1 °F 93% 30.01 in 3.0 mi SE 3.5 mph - N/A   Clear
7:52 AM 73.9 °F - 71.1 °F 91% 30.00 in 7.0 mi SE 4.6 mph - N/A   Clear
8:52 AM 78.1 °F - 71.1 °F 79% 30.00 in 10.0 mi SE 5.8 mph - N/A   Clear
10:52 AM 84.9 °F 89.4 °F 70.0 °F 61% 30.00 in 10.0 mi SSE 4.6 mph - N/A   Clear
11:52 AM 88.0 °F 91.4 °F 68.0 °F 51% 29.99 in 10.0 mi South 5.8 mph - N/A   Clear
12:52 PM 88.0 °F 91.4 °F 68.0 °F 51% 29.99 in 10.0 mi South 8.1 mph - N/A   Clear
1:52 PM 89.1 °F 91.0 °F 64.9 °F 45% 29.98 in 10.0 mi South 10.4 mph - N/A   Clear
3:52 PM 90.0 °F 90.3 °F 62.1 °F 39% 29.94 in 10.0 mi South 6.9 mph - N/A   Clear
4:52 PM 87.1 °F 87.8 °F 63.0 °F 44% 29.94 in 10.0 mi South 11.5 mph - N/A   Clear
5:52 PM 87.1 °F 88.3 °F 64.0 °F 46% 29.95 in 10.0 mi South 6.9 mph - N/A   Clear
7:52 PM 82.0 °F 83.1 °F 63.0 °F 52% 29.96 in 10.0 mi South 4.6 mph - N/A   Clear
8:52 PM 78.1 °F - 64.0 °F 62% 29.98 in 10.0 mi Calm Calm - N/A   Clear
10:52 PM 73.9 °F - 64.9 °F 73% 30.01 in 10.0 mi Calm Calm - N/A   Clear
11:52 PM 73.0 °F - 64.9 °F 76% 30.01 in 10.0 mi SSE 4.6 mph - N/A   Clear